Regional Weather Roundup
Issued by NWS

Home | Current Version | Previous Version | Graphics & Text | Print | Product List | Glossary Off
Versions: 1 2 3 4 5 6 7 8 9 10 11 12 13 14 15 16 17 18 19 20 21 22 23 24 25 26 27 28 29 30 31 32 33 34 35 36 37 38 39 40 41 42 43 44 45 46 47 48 49 50

000
ASUS43 KDMX 070907
RWRIA

WEATHER ROUNDUP FOR IOWA
NATIONAL WEATHER SERVICE DES MOINES IA
400 AM CDT TUE JUL 07 2015

NOTE: "FAIR" INDICATES FEW OR NO CLOUDS BELOW 12,000 FEET WITH NO
SIGNIFICANT WEATHER AND/OR OBSTRUCTIONS TO VISIBILITY.

* - THESE STATIONS ARE NOT NWS STATIONS...THUS NOT UNDER NWS
QUALITY CONTROL.  THEY ALSO DO NOT REPORT WEATHER SUCH
AS PRECIPITATION OR FOG.

IAZ001>003-012>014-020>022-031>034-043>046-071000-
   NORTHWEST IOWA

CITY           SKY/WX    TMP DP  RH WIND       PRES   REMARKS
CARROLL *      PTCLDY    54  50  87 N9G16     30.09R
CHEROKEE *     CLEAR     52  50  93 N3        30.13S
DENISON *      CLEAR     55  52  88 N8G15     30.08S
LE MARS *        N/A     52  52 100 NE5       30.15F
ORANGE CITY *  CLEAR     52  48  87 N7        30.14S
SHELDON *      CLEAR     48  48 100 CALM      30.15R
SIOUX CITY     CLEAR     56  51  84 N6        30.13F
SPENCER        CLEAR     48  44  86 NW7       30.14R
STORM LAKE *   CLEAR     52  48  87 N10       30.11F
$$

IAZ055>058-069>071-079>083-090>094-071000-
   SOUTHWEST IOWA

CITY           SKY/WX    TMP DP  RH WIND       PRES   REMARKS
ATLANTIC *     PTCLDY    55  52  88 N8        30.08R
AUDUBON *      CLEAR     55  50  82 N12       30.09R
CLARINDA *     CLEAR     61  57  88 N10       30.06S
COUNCIL BLFS * CLEAR     55  52  88 N8        30.09S
CRESTON *      CLEAR     59  54  82 N14       30.04S
HARLAN  *      CLEAR     55  55 100 N8G14     30.12R
LAMONI         PTCLDY    63  59  87 N12       30.01R FOG
RED OAK *      CLEAR     57  54  88 N12       30.06F
SHENANDOAH *   CLEAR     59  55  88 N10G16    30.07S
$$

IAZ047>049-059>061-072>074-084-071000-
   CENTRAL IOWA

CITY           SKY/WX    TMP DP  RH WIND       PRES   REMARKS
AMES           CLEAR     57  52  83 N12       30.03R
ANKENY *       PTCLDY    59  54  82 N12       30.02S
CHARITON *     CLOUDY    63  59  88 N10       30.01R FOG
DES MOINES     CLEAR     62  52  69 N15G22    30.01S
GRINNELL*        N/A     59  57  94 NW8       30.00R FOG
KNOXVILLE *    CLEAR     63  59  88 N12       29.99R HAZE
MARSHALLTOWN   CLEAR     58  55  90 N13       30.01R
PELLA *          N/A     61  61 100 N5        30.00S FOG
PERRY *          N/A     57  52  82 N8        30.06R
$$

IAZ004>006-015-016-023>025-035-036-071000-
   NORTH CENTRAL IOWA

CITY           SKY/WX    TMP DP  RH WIND       PRES   REMARKS
ALGONA *       CLEAR     52  48  87 N8        30.09R
CLARION *      CLEAR     54  50  87 N7        30.06S
ESTHERVILLE    CLEAR     50  46  86 N9        30.11R
FORT DODGE *   CLEAR     54  48  82 N6        30.08R
MASON CITY     CLEAR     53  50  89 NW9       30.07R
FOREST CITY *  CLEAR     52  48  87 N8        30.07R
IOWA FALLS *     N/A     55  52  88 N10       30.05R
$$

IAZ007>011-017>019-026>030-037>042-050>054-066-071000-
   NORTHEAST IOWA

CITY           SKY/WX    TMP DP  RH WIND       PRES   REMARKS
CEDAR RAPIDS   CLEAR     60  58  92 N10       29.96R FOG
CHARLES CITY * PTCLDY    55  54  94 N9        30.03S
CLINTON *      CLOUDY    61  55  82 N13       29.94R
DECORAH *        N/A    N/A N/A N/A MISG        N/A
DUBUQUE        CLEAR     59  55  87 N14       29.94R FOG
MONTICELLO *   CLEAR     59  59 100 N9        29.95R FOG
OELWEIN *        N/A     59  55  88 N7        30.00R FOG
WATERLOO       CLEAR     58  54  86 N12       29.99R
$$

IAZ064-065-067-068-078-071000-
   EAST CENTRAL IOWA

CITY           SKY/WX    TMP DP  RH WIND       PRES   REMARKS
DAVENPORT      MOCLDY    62  56  80 N9        29.92R HAZE
IOWA CITY      CLEAR     63  57  81 N13       29.95R HAZE
MT. PLEASANT * CLOUDY    66  59  77 N9        29.94R HAZE
MUSCATINE *    MOCLDY    64  57  77 N10G18    29.93S HAZE
QUAD CITIES    CLOUDY    64  58  80 N9        29.91S HAZE
$$

IAZ062-063-075>077-085>089-095>099-071000-
   SOUTHEAST IOWA

CITY           SKY/WX    TMP DP  RH WIND       PRES   REMARKS
BURLINGTON     CLOUDY    64  63  96 N7        29.92S FOG
FAIRFIELD *    CLOUDY    63  57  82 N9G16     29.96R HAZE
FORT MADISON * LGT RAIN  63  63 100 N6        29.94S
KEOKUK *       LGT RAIN  64  64 100 N12G17    29.91S
OSKALOOSA *    MOCLDY    61  57  88 N7        29.98S FOG
CENTERVILLE *  CLOUDY    64  57  77 N9        30.00R
OTTUMWA        CLOUDY    62  58  86 N12       29.96R FOG
WASHINGTON *   CLOUDY    63  59  88 N12       29.96R FOG
$$

ABBREVIATIONS USED IN REMARKS
   TC - TEMPERATURES IN CELSIUS
  WCI - WIND CHILL INDEX
   HX - HEAT INDEX
  VSB - VISIBILITY
$$




USA.gov is the U.S. government's official web portal to all federal, state and local government web resources and services.